Riverton, WY

3:21 PM MST on November 18, 2017 (GMT -0700)
Riverton Regional

Weather History for KRIW - June, 2013

Change the Weather History Date:

Monday, June 17, 2013

  Actual Average Record
Temperature  
Mean Temperature 70 °F 64 °F  
Max Temperature 85 °F 78 °F 92 °F (2012)
Min Temperature 54 °F 49 °F 36 °F (2000)
Degree Days  
Heating Degree Days 0 3  
Month to date heating degree days 49 91  
Since 1 June heating degree days 49 91  
Since 1 July heating degree days 7532 7842  
Cooling Degree Days 5 2  
Month to date cooling degree days 48 25  
Year to date cooling degree days 61 34  
Since 1 June cooling degree days 48 25  
Growing Degree Days 20 (Base 50)    
Moisture  
Dew Point 36 °F    
Average Humidity 35    
Maximum Humidity 55    
Minimum Humidity 14    
Precipitation  
Precipitation T in 0.04 in 0.65 in (1998)
Month to date precipitation 0.01 0.79  
Year to date precipitation 3.45 4.87  
Snow  
Snow 0.00 in - - ()
Month to date snowfall 0.0  
Since 1 June snowfall 0.0  
Since 1 July snowfall 38.2  
Snow Depth 0.00 in    
Sea Level Pressure  
Sea Level Pressure 29.94 in    
Wind  
Wind Speed 8 mph (ENE)    
Max Wind Speed 26 mph    
Max Gust Speed 32 mph    
Visibility 10 miles    
Events      
T = Trace of Precipitation, MM = Missing Value Source: NWS Daily Summary

Daily Weather History Graph

Daily Weather History Graph

Search for Another Location

Airport or City:

Trip Planner

Search our weather history database for the weather conditions in past years. The results will help you decide how hot, cold, wet, or windy it might be!

Date:

Astronomy

Jun. 17, 2013 Rise Set
Actual Time 5:33 AM MDT 8:55 PM MDT
Civil Twilight 4:58 AM MDT 9:31 PM MDT
Nautical Twilight 4:12 AM MDT 10:17 PM MDT
Astronomical Twilight 3:15 AM MDT 11:14 PM MDT
Moon 2:30 PM MDT (6/17) 1:20 AM MDT (6/17)
Length of Visible Light 16h 32m
Length of Day
15h 21m
First Quarter, 61% of the Moon is Illuminated
Jun 17
First Quarter
Jun 23
Full
Jun 29
Last Quarter
Jul 8
New
Jul 15
First Quarter

Hourly Weather History & Observations

Time (MDT) Temp. Dew Point Humidity Pressure Visibility Wind Dir Wind Speed Gust Speed Precip Events Conditions
12:53 AM 64.0 °F 37.0 °F 37% 29.97 in 10.0 mi ESE 4.6 mph - N/A   Partly Cloudy
1:53 AM 62.1 °F 36.0 °F 38% 29.98 in 10.0 mi NNE 8.1 mph - N/A   Clear
2:53 AM 60.1 °F 36.0 °F 41% 29.98 in 10.0 mi SE 4.6 mph - N/A   Clear
3:53 AM 59.0 °F 39.0 °F 48% 29.99 in 10.0 mi SSE 8.1 mph - N/A   Clear
4:53 AM 57.9 °F 39.9 °F 51% 29.99 in 10.0 mi SE 5.8 mph - N/A   Clear
5:53 AM 55.0 °F 39.9 °F 57% 30.01 in 10.0 mi NNE 6.9 mph - N/A   Clear
6:53 AM 57.9 °F 41.0 °F 53% 30.01 in 10.0 mi NE 9.2 mph - N/A   Clear
7:53 AM 62.1 °F 42.1 °F 48% 30.02 in 10.0 mi ENE 10.4 mph - N/A   Clear
8:53 AM 64.9 °F 42.1 °F 43% 30.01 in 10.0 mi ENE 9.2 mph - N/A   Clear
9:53 AM 69.1 °F 43.0 °F 39% 30.00 in 10.0 mi ENE 9.2 mph - N/A   Clear
10:53 AM 72.0 °F 39.9 °F 31% 29.99 in 10.0 mi ENE 5.8 mph - N/A   Clear
11:53 AM 73.0 °F 39.0 °F 29% 29.98 in 10.0 mi East 4.6 mph - N/A   Clear
12:53 PM 75.0 °F 37.9 °F 26% 29.96 in 10.0 mi Variable 4.6 mph - N/A   Clear
1:53 PM 80.1 °F 37.0 °F 21% 29.93 in 10.0 mi Variable 3.5 mph - N/A   Clear
2:53 PM 84.0 °F 32.0 °F 15% 29.90 in 10.0 mi East 8.1 mph - N/A   Clear
3:53 PM 82.9 °F 28.9 °F 14% 29.88 in 10.0 mi Variable 3.5 mph 17.3 mph N/A   Clear
4:53 PM 82.9 °F 28.0 °F 14% 29.86 in 10.0 mi Variable 3.5 mph - N/A   Clear
5:53 PM 82.0 °F 30.9 °F 16% 29.86 in 10.0 mi NE 20.7 mph 28.8 mph N/A   Clear
6:53 PM 81.0 °F 32.0 °F 17% 29.86 in 10.0 mi NE 17.3 mph - N/A   Clear
7:53 PM 81.0 °F 30.0 °F 16% 29.84 in 10.0 mi NE 15.0 mph - N/A   Partly Cloudy
8:53 PM 78.1 °F 28.9 °F 17% 29.87 in 10.0 mi ENE 9.2 mph - 0.00 in   Mostly Cloudy
9:53 PM 73.9 °F 28.9 °F 19% 29.87 in 10.0 mi East 8.1 mph - N/A   Clear
10:53 PM 69.1 °F 44.1 °F 40% 29.90 in 10.0 mi East 11.5 mph - N/A   Clear
11:53 PM 66.9 °F 42.1 °F 40% 29.91 in 10.0 mi East 8.1 mph - N/A   Clear